User: anonymous   Login
Location: Strohbehn Observatory
(42.4649°N, 93.8239°W)
Time: 23:16:08
(UTC-05:00)
Language:

SL-16 R/B - Orbit

View from above orbital plane
View from above orbital plane
View from above satellite
View from above satellite

Ground track
Ground track

The orbit data is extracted from the following two-line orbital elements,

1 31793U 07029B   15142.19252010 -.00000205  00000-0 -82125-4 0  9995
2 31793 070.9750 179.1686 0002792 264.4213 162.4920 14.14331797407682
Epoch (UTC): 22 May 2015 04:37:13
Eccentricity: 0.0002792
inclination: 70.9750°
perigee height: 842 km
apogee height: 846 km
right ascension of ascending node: 179.1686°
argument of perigee: 264.4213°
revolutions per day: 14.14331797
mean anomaly at epoch: 162.4920°
orbit number at epoch: 40768

The dashed part of the orbit path shows where the satellite is in the earth's shadow,  

DLR